Location: Alpha Ridge Park
(39.3209°N, 76.9128°W)
Time: 16:20:40
(UTC-04:00)

S-56A Canister/Altair - Pass Details

Date: 27 May 2019
Orbit: 633 x 2499 km, 38.9° (Epoch: 23 June)

Event Time Altitude Azimuth Distance (km) Brightness Sun altitude
Rises 06:07:17 0° 283° (WNW) 4,047 10.7 2.9°
Reaches altitude 10° 06:09:43 10° 279° (W) 3,293 10.3 3.4°
Maximum altitude 06:18:04 59° 203° (SSW) 1,927 9.4 4.8°
Drops below altitude 10° 06:30:27 10° 129° (SE) 4,760 12.0 7.0°
Sets 06:34:44 0° 126° (SE) 5,948 12.6 7.8°
